Time,TemperatureF,DewpointF,PressureIn,WindDirection,WindDirectionDegrees,WindSpeedMPH,WindSpeedGustMPH,Humidity,HourlyPrecipIn,Conditions,Clouds,dailyrainin,SoftwareType,DateUTC
2013-03-19 00:04:00,40.1,27.0,30.04,North,5,0.0,0.0,60,0.00,,,0.00,weatherlink.com 1.10,2013-03-19 06:04:00,
2013-03-19 00:19:00,40.6,28.0,30.03,North,5,0.0,0.0,60,0.00,,,0.00,weatherlink.com 1.10,2013-03-19 06:19:00,
2013-03-19 00:34:00,40.3,27.0,30.03,North,5,0.0,0.0,59,0.00,,,0.00,weatherlink.com 1.10,2013-03-19 06:34:00,
2013-03-19 00:49:00,39.8,27.0,30.03,North,5,0.0,0.0,61,0.00,,,0.00,weatherlink.com 1.10,2013-03-19 06:49:00,
2013-03-19 01:04:00,40.1,27.0,30.03,North,5,0.0,0.0,61,0.00,,,0.00,weatherlink.com 1.10,2013-03-19 07:04:00,
2013-03-19 01:19:00,39.2,29.0,30.03,North,5,0.0,0.0,66,0.00,,,0.00,weatherlink.com 1.10,2013-03-19 07:19:00,
2013-03-19 01:34:00,38.8,28.0,30.03,North,5,0.0,0.0,66,0.00,,,0.00,weatherlink.com 1.10,2013-03-19 07:34:00,
2013-03-19 01:49:00,37.3,28.0,30.03,North,5,0.0,0.0,68,0.00,,,0.00,weatherlink.com 1.10,2013-03-19 07:49:00,
2013-03-19 02:04:00,36.8,29.0,30.03,North,5,0.0,0.0,72,0.00,,,0.00,weatherlink.com 1.10,2013-03-19 08:04:00,
2013-03-19 02:19:00,35.7,28.0,30.03,North,5,0.0,0.0,74,0.00,,,0.00,weatherlink.com 1.10,2013-03-19 08:19:00,
2013-03-19 02:34:00,35.9,29.0,30.04,NNE,18,1.0,6.0,76,0.00,,,0.00,weatherlink.com 1.10,2013-03-19 08:34:00,
2013-03-19 02:49:00,36.4,30.0,30.05,NNE,18,0.0,4.0,76,0.00,,,0.00,weatherlink.com 1.10,2013-03-19 08:49:00,
2013-03-19 03:04:00,36.8,30.0,30.06,NNE,18,0.0,0.0,75,0.00,,,0.00,weatherlink.com 1.10,2013-03-19 09:04:00,
2013-03-19 03:19:00,37.4,30.0,30.06,NNE,18,0.0,0.0,74,0.00,,,0.00,weatherlink.com 1.10,2013-03-19 09:19:00,
2013-03-19 03:34:00,37.2,30.0,30.05,NNE,18,0.0,0.0,74,0.00,,,0.00,weatherlink.com 1.10,2013-03-19 09:34:00,
2013-03-19 03:49:00,37.4,29.0,30.06,NNE,18,0.0,0.0,73,0.00,,,0.00,weatherlink.com 1.10,2013-03-19 09:49:00,
2013-03-19 04:04:00,38.1,30.0,30.06,NNE,18,0.0,0.0,72,0.00,,,0.00,weatherlink.com 1.10,2013-03-19 10:04:00,
2013-03-19 04:19:00,38.7,30.0,30.07,NNE,18,0.0,0.0,71,0.00,,,0.00,weatherlink.com 1.10,2013-03-19 10:19:00,
2013-03-19 04:34:00,39.7,29.0,30.07,NNE,18,1.0,3.0,67,0.00,,,0.00,weatherlink.com 1.10,2013-03-19 10:34:00,
2013-03-19 04:49:00,38.1,29.0,30.08,NNE,18,0.0,2.0,70,0.00,,,0.00,weatherlink.com 1.10,2013-03-19 10:49:00,
2013-03-19 05:04:00,37.6,29.0,30.09,NNE,30,2.0,4.0,72,0.00,,,0.00,weatherlink.com 1.10,2013-03-19 11:04:00,
2013-03-19 05:19:00,36.8,29.0,30.10,NNE,32,2.0,4.0,73,0.00,,,0.00,weatherlink.com 1.10,2013-03-19 11:19:00,
2013-03-19 05:34:00,36.0,29.0,30.11,NNE,19,2.0,4.0,75,0.00,,,0.00,weatherlink.com 1.10,2013-03-19 11:34:00,
2013-03-19 05:49:00,36.0,28.0,30.11,North,360,3.0,5.0,74,0.00,,,0.00,weatherlink.com 1.10,2013-03-19 11:49:00,
2013-03-19 06:04:00,36.2,29.0,30.12,NNE,16,3.0,6.0,74,0.00,,,0.00,weatherlink.com 1.10,2013-03-19 12:04:00,
2013-03-19 06:20:00,36.2,29.0,30.13,NNE,26,0.0,5.0,74,0.00,,,0.00,weatherlink.com 1.10,2013-03-19 12:20:00,
2013-03-19 06:35:00,36.6,29.0,30.14,NNE,24,0.0,5.0,73,0.00,,,0.00,weatherlink.com 1.10,2013-03-19 12:35:00,
2013-03-19 06:50:00,37.0,28.0,30.14,NNE,33,2.0,4.0,71,0.00,,,0.00,weatherlink.com 1.10,2013-03-19 12:50:00,
2013-03-19 07:05:00,36.9,28.0,30.14,NNE,13,3.0,6.0,71,0.00,,,0.00,weatherlink.com 1.10,2013-03-19 13:05:00,
2013-03-19 07:20:00,37.4,29.0,30.15,NNE,23,4.0,6.0,72,0.00,,,0.00,weatherlink.com 1.10,2013-03-19 13:20:00,
2013-03-19 07:35:00,39.0,29.0,30.16,NNE,30,2.0,7.0,67,0.00,,,0.00,weatherlink.com 1.10,2013-03-19 13:35:00,
2013-03-19 07:50:00,39.8,29.0,30.17,NE,51,4.0,8.0,66,0.00,,,0.00,weatherlink.com 1.10,2013-03-19 13:50:00,
2013-03-19 08:05:00,40.8,30.0,30.18,NE,47,4.0,9.0,65,0.00,,,0.00,weatherlink.com 1.10,2013-03-19 14:05:00,
2013-03-19 08:20:00,42.3,30.0,30.18,NE,38,5.0,11.0,62,0.00,,,0.00,weatherlink.com 1.10,2013-03-19 14:20:00,
2013-03-19 08:35:00,43.1,29.0,30.17,NNE,28,6.0,11.0,59,0.00,,,0.00,weatherlink.com 1.10,2013-03-19 14:35:00,
2013-03-19 08:50:00,45.0,29.0,30.17,NE,46,6.0,16.0,53,0.00,,,0.00,weatherlink.com 1.10,2013-03-19 14:50:00,
2013-03-19 09:05:00,45.4,29.0,30.18,ENE,63,4.0,12.0,52,0.00,,,0.00,weatherlink.com 1.10,2013-03-19 15:05:00,
2013-03-19 09:20:00,46.0,28.0,30.18,ENE,75,8.0,12.0,49,0.00,,,0.00,weatherlink.com 1.10,2013-03-19 15:20:00,
2013-03-19 09:35:00,47.5,28.0,30.18,ENE,72,4.0,8.0,48,0.00,,,0.00,weatherlink.com 1.10,2013-03-19 15:35:00,
2013-03-19 09:50:00,49.6,27.0,30.18,ENE,62,3.0,10.0,42,0.00,,,0.00,weatherlink.com 1.10,2013-03-19 15:50:00,
2013-03-19 10:05:00,50.4,26.0,30.18,East,100,3.0,14.0,39,0.00,,,0.00,weatherlink.com 1.10,2013-03-19 16:05:00,
2013-03-19 10:20:00,51.7,27.0,30.18,ENE,57,8.0,13.0,39,0.00,,,0.00,weatherlink.com 1.10,2013-03-19 16:20:00,
2013-03-19 10:35:00,53.5,26.0,30.18,East,95,2.0,7.0,34,0.00,,,0.00,weatherlink.com 1.10,2013-03-19 16:35:00,
2013-03-19 10:50:00,54.0,25.0,30.17,ENE,58,3.0,9.0,33,0.00,,,0.00,weatherlink.com 1.10,2013-03-19 16:50:00,
2013-03-19 11:05:00,54.4,26.0,30.17,SSE,149,2.0,14.0,34,0.00,,,0.00,weatherlink.com 1.10,2013-03-19 17:05:00,
2013-03-19 11:35:00,55.4,28.0,30.16,ESE,113,3.0,9.0,35,0.00,,,0.00,weatherlink.com 1.10,2013-03-19 17:35:00,
2013-03-19 11:50:00,56.3,29.0,30.16,ESE,116,2.0,8.0,36,0.00,,,0.00,weatherlink.com 1.10,2013-03-19 17:50:00,
2013-03-19 12:05:00,56.0,29.0,30.15,ESE,103,5.0,9.0,36,0.00,,,0.00,weatherlink.com 1.10,2013-03-19 18:05:00,
2013-03-19 12:20:00,57.1,30.0,30.14,ESE,109,4.0,9.0,35,0.00,,,0.00,weatherlink.com 1.10,2013-03-19 18:20:00,
2013-03-19 12:35:00,57.0,29.0,30.14,ESE,121,0.0,8.0,34,0.00,,,0.00,weatherlink.com 1.10,2013-03-19 18:35:00,
2013-03-19 12:50:00,57.5,28.0,30.13,SE,137,2.0,9.0,33,0.00,,,0.00,weatherlink.com 1.10,2013-03-19 18:50:00,
2013-03-19 13:05:00,57.1,30.0,30.12,South,178,3.0,9.0,36,0.00,,,0.00,weatherlink.com 1.10,2013-03-19 19:05:00,
2013-03-19 13:20:00,57.8,30.0,30.11,SSE,153,11.0,11.0,35,0.00,,,0.00,weatherlink.com 1.10,2013-03-19 19:20:00,
2013-03-19 13:35:00,57.8,29.0,30.11,SE,128,2.0,8.0,33,0.00,,,0.00,weatherlink.com 1.10,2013-03-19 19:35:00,
2013-03-19 13:51:00,58.0,29.0,30.11,ESE,119,1.0,7.0,33,0.00,,,0.00,weatherlink.com 1.10,2013-03-19 19:51:00,
2013-03-19 14:06:00,58.3,28.0,30.11,SSE,159,1.0,9.0,32,0.00,,,0.00,weatherlink.com 1.10,2013-03-19 20:06:00,
2013-03-19 14:20:00,58.2,28.0,30.11,SSE,157,4.0,11.0,32,0.00,,,0.00,weatherlink.com 1.10,2013-03-19 20:20:00,
2013-03-19 14:35:00,57.5,30.0,30.11,SSW,198,1.0,7.0,35,0.00,,,0.00,weatherlink.com 1.10,2013-03-19 20:35:00,
2013-03-19 14:50:00,57.4,29.0,30.11,South,173,2.0,8.0,34,0.00,,,0.00,weatherlink.com 1.10,2013-03-19 20:50:00,
2013-03-19 15:05:00,57.1,30.0,30.11,South,171,0.0,8.0,35,0.00,,,0.00,weatherlink.com 1.10,2013-03-19 21:05:00,
2013-03-19 15:21:00,57.2,29.0,30.11,SE,134,0.0,2.0,34,0.00,,,0.00,weatherlink.com 1.10,2013-03-19 21:21:00,
2013-03-19 15:36:00,57.3,30.0,30.11,SSE,166,0.0,6.0,35,0.00,,,0.00,weatherlink.com 1.10,2013-03-19 21:36:00,
2013-03-19 15:51:00,57.2,30.0,30.11,SSE,166,0.0,0.0,36,0.00,,,0.00,weatherlink.com 1.10,2013-03-19 21:51:00,
2013-03-19 16:21:00,57.1,30.0,30.11,SSE,166,0.0,0.0,35,0.00,,,0.00,weatherlink.com 1.10,2013-03-19 22:21:00,
2013-03-19 16:36:00,57.0,30.0,30.11,SSE,165,0.0,2.0,36,0.00,,,0.00,weatherlink.com 1.10,2013-03-19 22:36:00,
2013-03-19 16:52:00,57.1,31.0,30.11,SSE,163,0.0,2.0,37,0.00,,,0.00,weatherlink.com 1.10,2013-03-19 22:52:00,
2013-03-19 17:06:00,56.9,29.0,30.11,SSE,162,0.0,2.0,35,0.00,,,0.00,weatherlink.com 1.10,2013-03-19 23:06:00,
2013-03-19 17:21:00,56.7,28.0,30.11,SSE,153,0.0,3.0,34,0.00,,,0.00,weatherlink.com 1.10,2013-03-19 23:21:00,
2013-03-19 17:36:00,56.4,29.0,30.12,SE,146,0.0,3.0,35,0.00,,,0.00,weatherlink.com 1.10,2013-03-19 23:36:00,
2013-03-19 17:51:00,56.0,29.0,30.12,ESE,121,0.0,3.0,35,0.00,,,0.00,weatherlink.com 1.10,2013-03-19 23:51:00,
2013-03-19 18:21:00,55.0,28.0,30.13,ESE,121,0.0,0.0,36,0.00,,,0.00,weatherlink.com 1.10,2013-03-20 00:21:00,
2013-03-19 18:51:00,49.9,27.0,30.15,NE,54,6.0,16.0,42,0.00,,,0.00,weatherlink.com 1.10,2013-03-20 00:51:00,
2013-03-19 19:51:00,46.0,28.0,30.19,NNW,342,8.0,15.0,49,0.00,,,0.00,weatherlink.com 1.10,2013-03-20 01:51:00,
2013-03-19 20:06:00,45.3,27.0,30.20,NNE,31,3.0,18.0,50,0.00,,,0.00,weatherlink.com 1.10,2013-03-20 02:06:00,
2013-03-19 20:21:00,44.9,27.0,30.21,North,350,9.0,16.0,50,0.00,,,0.00,weatherlink.com 1.10,2013-03-20 02:21:00,
2013-03-19 20:51:00,44.3,27.0,30.23,NNE,19,10.0,10.0,52,0.00,,,0.00,weatherlink.com 1.10,2013-03-20 02:51:00,
2013-03-19 21:06:00,44.1,27.0,30.23,NNE,22,4.0,12.0,52,0.00,,,0.00,weatherlink.com 1.10,2013-03-20 03:06:00,
2013-03-19 21:21:00,43.8,27.0,30.23,NE,40,4.0,8.0,53,0.00,,,0.00,weatherlink.com 1.10,2013-03-20 03:21:00,
2013-03-19 21:36:00,43.5,28.0,30.23,NE,45,5.0,10.0,54,0.00,,,0.00,weatherlink.com 1.10,2013-03-20 03:36:00,
2013-03-19 21:51:00,43.2,28.0,30.24,NNE,20,6.0,8.0,55,0.00,,,0.00,weatherlink.com 1.10,2013-03-20 03:51:00,
2013-03-19 22:06:00,42.9,28.0,30.25,NNE,32,1.0,11.0,56,0.00,,,0.00,weatherlink.com 1.10,2013-03-20 04:06:00,
2013-03-19 22:21:00,42.5,28.0,30.24,NE,55,3.0,7.0,57,0.00,,,0.00,weatherlink.com 1.10,2013-03-20 04:21:00,
2013-03-19 22:36:00,42.1,29.0,30.25,NE,39,1.0,3.0,59,0.00,,,0.00,weatherlink.com 1.10,2013-03-20 04:36:00,
2013-03-19 22:51:00,41.4,29.0,30.24,NNE,24,0.0,4.0,61,0.00,,,0.00,weatherlink.com 1.10,2013-03-20 04:51:00,
2013-03-19 23:06:00,41.1,29.0,30.25,NNE,24,2.0,4.0,63,0.00,,,0.00,weatherlink.com 1.10,2013-03-20 05:06:00,
2013-03-19 23:21:00,40.7,29.0,30.25,NNE,25,0.0,4.0,64,0.00,,,0.00,weatherlink.com 1.10,2013-03-20 05:21:00,
2013-03-19 23:37:00,40.6,29.0,30.26,NNE,25,0.0,3.0,64,0.00,,,0.00,weatherlink.com 1.10,2013-03-20 05:37:00,
2013-03-19 23:51:00,40.1,29.0,30.27,NNE,25,0.0,2.0,65,0.00,,,0.00,weatherlink.com 1.10,2013-03-20 05:51:00,